Regional Weather Roundup
Issued by NWS Goodland, KS

Home | Current Version | Previous Version | Graphics & Text | Print | Product List | Glossary On
Versions: 1 2 3 4 5 6 7 8 9 10 11 12 13 14 15 16 17 18 19 20 21 22 23 24 25 26 27 28 29 30 31 32 33 34 35 36 37 38 39 40 41 42 43 44 45 46 47 48 49 50
000
ASUS43 KGLD 071659
RWRGLD

GOODLAND FORECAST AREA HOURLY WEATHER ROUNDUP
NATIONAL WEATHER SERVICE GOODLAND KS
1100 AM MDT TUE JUL 07 2015

...OFFICIAL OBSERVATIONS...

CITY           SKY/WX    TMP DP  RH WIND       PRES   REMARKS
GOODLAND KS    SUNNY     70  46  42 E13       30.21F
HILL CITY KS   SUNNY     74  49  41 NE16G22   30.19S HAZE
IMPERIAL NEB   SUNNY     71  48  43 SE10      30.20F
MCCOOK NEB     SUNNY     71  52  50 VRB5      30.20F HAZE
AKRON CO       PTSUNNY   66  49  54 S17       30.21F
BURLINGTON CO  SUNNY     69  45  41 E14       30.23F
LIMON CO       PTSUNNY   63  51  65 SE13G20   30.25F HAZE
$$

...UNOFFICIAL OBSERVATIONS...

CITY           SKY/WX    TMP DP  RH WIND       PRES   REMARKS
COLBY KS       SUNNY     70  50  49 E8        30.21F
GOVE KS          N/A     72  32  23 MISG        N/A
NORTON KS      SUNNY     73  45  35 NE9G16    30.18F
SHARON SPRINGS   N/A     70  51  51 E7G18       N/A
KIT CARSON CO    N/A     67  48  51 MISG        N/A
$$



USA.gov is the U.S. government's official web portal to all federal, state and local government web resources and services.